Regional Weather Roundup
Issued by NWS

Home | Current Version | Previous Version | Text Only | Print | Product List | Glossary Off
Versions: 1 2 3 4 5 6 7 8 9 10 11 12 13 14 15 16 17 18 19 20 21 22 23 24 25 26 27 28 29 30 31 32 33 34 35 36 37 38 39 40 41 42 43 44 45 46 47 48 49 50

000
ASUS43 KDMX 122307
RWRIA

WEATHER ROUNDUP FOR IOWA
NATIONAL WEATHER SERVICE DES MOINES IA
600 PM CDT SAT JUL 12 2014

NOTE: "FAIR" INDICATES FEW OR NO CLOUDS BELOW 12,000 FEET WITH NO
SIGNIFICANT WEATHER AND/OR OBSTRUCTIONS TO VISIBILITY.

* - THESE STATIONS ARE NOT NWS STATIONS...THUS NOT UNDER NWS
QUALITY CONTROL.  THEY ALSO DO NOT REPORT WEATHER SUCH
AS PRECIPITATION OR FOG.

IAZ001>003-012>014-020>022-031>034-043>046-130000-
   NORTHWEST IOWA

CITY           SKY/WX    TMP DP  RH WIND       PRES   REMARKS
CARROLL *      PTSUNNY   72  68  88 N8        29.99F
CHEROKEE *     PTSUNNY   75  68  78 CALM      30.00F
DENISON *      MOSUNNY   72  68  88 NE6       29.98F
LE MARS *      SUNNY     77  70  78 NW3       30.01F
ORANGE CITY *  SUNNY     77  68  73 CALM      30.01S
SHELDON *      SUNNY     79  68  69 W3        29.99S HX  81
SIOUX CITY     PTSUNNY   77  69  76 CALM      30.00F
SPENCER        MOSUNNY   77  69  76 VRB6      29.99F
STORM LAKE *   SUNNY     70  70 100 CALM      30.01F
$$

IAZ055>058-069>071-079>083-090>094-130000-
   SOUTHWEST IOWA

CITY           SKY/WX    TMP DP  RH WIND       PRES   REMARKS
ATLANTIC *     CLOUDY    77  72  83 N12       29.96S
AUDUBON *      MOSUNNY   75  72  88 N9        29.99F
CLARINDA *     MOSUNNY   81  66  61 CALM      29.93F HX  83
COUNCIL BLFS * MOSUNNY   77  73  88 N14G21    29.97S
CRESTON *      MOSUNNY   86  75  70 W9        29.93F HX  95
HARLAN  *      MOSUNNY   75  72  88 N9        30.01F
LAMONI         SUNNY     85  73  67 SW14      29.93F HX  91
RED OAK *      SUNNY     84  75  74 N14       29.94S HX  92
SHENANDOAH *   SUNNY     90  77  66 NW8       29.93F HX 102
$$

IAZ047>049-059>061-072>074-084-130000-
   CENTRAL IOWA

CITY           SKY/WX    TMP DP  RH WIND       PRES   REMARKS
AMES           PTSUNNY   76  72  87 N14       29.94F
ANKENY *       MOSUNNY   81  73  78 N12       29.90F HX  85
CHARITON *     PTSUNNY   88  75  66 SW12      29.90F HX  97
DES MOINES     PTSUNNY   84  73  69 N12       29.89F THUNDER HX  90
GRINNELL*      MOSUNNY   82  75  78 N3        29.90F HX  89
KNOXVILLE *    RAIN      73  70  88 N9        29.90F
MARSHALLTOWN   CLOUDY    74  70  87 N14G21    29.92F
PELLA *        RAIN      73  68  83 SW10      29.91S
PERRY *        CLOUDY    75  72  88 N10G18    29.96S
$$

IAZ004>006-015-016-023>025-035-036-130000-
   NORTH CENTRAL IOWA

CITY           SKY/WX    TMP DP  RH WIND       PRES   REMARKS
ALGONA *       SUNNY     72  68  88 SW6       29.98F
CLARION *      LGT RAIN  68  68 100 CALM      29.99F
ESTHERVILLE    SUNNY     78  65  63 N5        29.98S HX  80
FORT DODGE *   CLOUDY    66  64  94 N3        30.00F
MASON CITY     CLOUDY    69  67  93 CALM      29.98F
FOREST CITY *  MOSUNNY   72  68  88 SW5       29.97F
IOWA FALLS *   CLOUDY    70  66  88 N13       29.98F
$$

IAZ007>011-017>019-026>030-037>042-050>054-066-130000-
   NORTHEAST IOWA

CITY           SKY/WX    TMP DP  RH WIND       PRES   REMARKS
CEDAR RAPIDS   PTSUNNY   84  76  76 SE6       29.89F HX  93
CHARLES CITY * HVY RAIN  66  64  94 N3        29.98F
CLINTON *      CLOUDY    72  64  78 S28G36    29.93F THUNDER
DECORAH *        N/A    N/A N/A N/A MISG        N/A
DUBUQUE        CLOUDY    80  72  76 CALM      29.92F HX  84
MONTICELLO *   MOSUNNY   82  73  74 CALM      29.90F HX  88
OELWEIN *      RAIN      66  66 100 N10G17    29.95F
WATERLOO       LGT RAIN  68  65  90 N9        29.94F
$$

IAZ064-065-067-068-078-130000-
   EAST CENTRAL IOWA

CITY           SKY/WX    TMP DP  RH WIND       PRES   REMARKS
DAVENPORT      PTSUNNY   84  75  74 S6        29.92F HX  92
IOWA CITY      CLOUDY    85  77  77 E5        29.89F THUNDER HX  95
MT. PLEASANT * PTSUNNY   90  73  58 S13       29.89F HX  98
MUSCATINE *    SUNNY     90  75  62 SW9       29.88F HX 100
QUAD CITIES    PTSUNNY   85  74  69 SW6       29.90F HX  92
$$

IAZ062-063-075>077-085>089-095>099-130000-
   SOUTHEAST IOWA

CITY           SKY/WX    TMP DP  RH WIND       PRES   REMARKS
BURLINGTON     PTSUNNY   88  76  67 S14       29.91F HX  99
FAIRFIELD *    SUNNY     86  73  66 S13G21    29.89F HX  93
FORT MADISON * SUNNY     90  77  66 S10       29.92F HX 102
KEOKUK *       SUNNY     88  75  66 S14G20    29.91F HX  97
OSKALOOSA *      N/A     86  73  66 CALM      29.90F HX  93
CENTERVILLE *  SUNNY     88  77  70 S14G24    29.93F HX 100
OTTUMWA        MOSUNNY   86  73  65 S13G21    29.87F HX  93
WASHINGTON *   SUNNY     88  77  70 SW9       29.88F HX 100
$$

ABBREVIATIONS USED IN REMARKS
   TC - TEMPERATURES IN CELSIUS
  WCI - WIND CHILL INDEX
   HX - HEAT INDEX
  VSB - VISIBILITY
$$



USA.gov is the U.S. government's official web portal to all federal, state and local government web resources and services.